User: anonymous   Login
Location: Unspecified
(0.0000°N, 0.0000°E)
Time: 15:05:07
(UTC+00:00)
Language:

HORYU 4 - Orbit

View from above orbital plane
View from above orbital plane
View from above satellite
View from above satellite

Ground track
Ground track

The orbit data is extracted from the following two-line orbital elements,

1 41340U 16012D   19078.21465102 +.00000546 +00000-0 +34775-4 0  9993
2 41340 031.0059 356.5895 0014064 300.5247 059.4000 15.01193402169256
Epoch (UTC): 19 March 2019 05:09:05
Eccentricity: 0.0014064
inclination: 31.0059°
perigee height: 553 km
apogee height: 573 km
right ascension of ascending node: 356.5895°
argument of perigee: 300.5247°
revolutions per day: 15.01193402
mean anomaly at epoch: 59.4000°
orbit number at epoch: 16925

The dashed part of the orbit path shows where the satellite is in the earth's shadow,  

DLR